EW1931 Weather Reports


time (UTC)temp
C
wind
direction
speed
KPH
gust
KPH
rain 1hr
cm
rain 24hr
cm
rain mn
cm
humidity
%
barometer
mb
20260507190014 18 320 14.5 29.0 0.00 0.00 0.00 32 923.2
20260507184556 19 304 12.9 30.6 0.00 0.00 0.00 31 923.2
20260507183055 20 338 24.1 37.0 0.00 0.00 0.00 32 923.3
20260507181534 19 323 24.1 35.4 0.00 0.00 0.00 35 923.5
20260507180036 18 330 24.1 35.4 0.00 0.00 0.00 37 923.7
20260507174517 19 340 22.5 33.8 0.00 0.00 0.00 37 923.6
20260507173025 18 325 22.5 40.2 0.00 0.00 0.00 39 923.8
20260507171608 19 336 20.9 32.2 0.00 0.00 0.00 37 923.9
20260507171502 19 344 24.1 35.4 0.00 0.00 0.00 37 923.9
20260507170110 18 331 25.7 43.5 0.00 0.00 0.00 38 923.8
20260507164541 17 336 12.9 20.9 0.00 0.00 0.00 41 924.0
20260507163031 16 200 9.7 17.7 0.00 0.00 0.00 42 924.0
20260507161510 15 248 6.4 12.9 0.00 0.00 0.00 45 924.2
20260507160006 13 231 9.7 14.5 0.00 0.00 0.00 47 924.3
20260507154551 12 221 8.0 16.1 0.00 0.00 0.00 50 924.3
20260507153042 11 198 9.7 12.9 0.00 0.00 0.00 51 924.4
20260507151520 11 183 11.3 16.1 0.00 0.00 0.00 48 924.6
20260507150018 10 180 9.7 14.5 0.00 0.00 0.00 49 924.6
20260507144602 10 5 3.2 9.7 0.00 0.00 0.00 50 924.8
20260507143114 9 15 4.8 12.9 0.00 0.00 0.00 50 924.7
20260507141550 9 21 14.5 19.3 0.00 0.00 0.00 50 924.8
20260507140040 9 335 11.3 17.7 0.00 0.00 0.00 52 924.7
20260507134520 10 355 14.5 19.3 0.00 0.00 0.00 52 924.7
20260507133016 8 311 12.9 17.7 0.00 0.00 0.00 51 924.3
20260507131555 8 309 9.7 14.5 0.00 0.00 0.00 50 924.4
20260507130052 7 19 4.8 16.1 0.00 0.00 0.00 52 924.3
20260507124531 6 323 14.5 19.3 0.00 0.00 0.00 54 924.4
20260507123037 6 296 12.9 17.7 0.00 0.00 0.00 54 924.2
20260507121511 6 300 12.9 19.3 0.00 0.00 0.00 55 924.1
20260507120026 5 309 12.9 17.7 0.00 0.00 0.00 58 923.9
20260507114558 5 310 12.9 16.1 0.00 0.00 0.00 57 923.9
20260507113053 5 306 11.3 17.7 0.00 0.00 0.00 55 923.8
20260507111531 6 286 9.7 17.7 0.00 0.00 0.00 55 923.7
20260507110036 6 288 11.3 14.5 0.00 0.00 0.00 55 923.8
20260507104515 6 267 11.3 16.1 0.00 0.00 0.00 56 923.7
20260507103013 6 223 12.9 16.1 0.00 0.00 0.00 56 923.8
20260507101559 6 244 11.3 16.1 0.00 0.00 0.00 58 923.7
20260507100050 6 221 11.3 16.1 0.00 0.00 0.00 57 923.4
20260507094532 6 355 6.4 9.7 0.00 0.00 0.00 56 923.5
20260507093030 6 19 11.3 16.1 0.00 0.00 0.00 57 923.6
20260507091510 6 13 12.9 16.1 0.00 0.00 0.00 57 923.5
20260507090009 6 9 12.9 17.7 0.00 0.00 0.00 56 923.3
20260507084555 6 26 11.3 16.1 0.00 0.00 0.00 57 923.1
20260507083051 6 10 9.7 16.1 0.00 0.00 0.00 58 923.1
20260507081542 6 37 9.7 14.5 0.00 0.00 0.00 59 923.2
20260507080036 6 36 11.3 16.1 0.00 0.00 0.00 59 923.1
20260507074538 6 23 9.7 11.3 0.00 0.00 0.00 58 923.0
20260507073030 8 35 8.0 11.3 0.00 0.00 0.00 55 923.1
20260507071535 8 80 6.4 8.0 0.00 0.00 0.00 55 923.1
20260507070033 8 86 8.0 12.9 0.00 0.00 0.00 55 923.1
20260507064537 9 47 11.3 20.9 0.00 0.00 0.00 55 923.1
20260507063027 11 51 17.7 25.7 0.00 0.00 0.00 49 923.0
20260507061533 12 66 19.3 29.0 0.00 0.00 0.00 47 923.3
20260507060009 12 73 9.7 22.5 0.00 0.00 0.00 46 923.2
20260507054532 13 74 22.5 27.4 0.00 0.00 0.00 35 922.7
20260507053039 12 79 19.3 22.5 0.00 0.00 0.00 36 922.7
20260507051538 12 66 9.7 25.7 0.00 0.00 0.00 36 922.8
20260507050021 11 75 14.5 22.5 0.00 0.00 0.00 37 922.6
20260507044519 11 65 12.9 12.9 0.00 0.00 0.00 36 922.8
20260507043002 12 67 9.7 14.5 0.00 0.00 0.00 36 922.8
20260507041501 12 83 1.6 8.0 0.00 0.00 0.00 33 923.0
20260507040043 12 107 9.7 12.9 0.00 0.00 0.00 33 923.1
20260507034557 12 307 3.2 8.0 0.00 0.00 0.00 33 923.3
20260507033025 12 94 1.6 9.7 0.00 0.00 0.00 33 922.8
20260507031524 12 78 9.7 12.9 0.00 0.00 0.00 36 922.5
20260507030008 12 86 12.9 16.1 0.00 0.00 0.00 36 922.4
20260507024508 13 84 14.5 16.1 0.00 0.00 0.00 34 922.3
20260507023007 14 82 6.4 16.1 0.00 0.00 0.00 34 922.4
20260507021506 16 107 9.7 12.9 0.00 0.00 0.00 28 922.3
20260507020005 16 100 3.2 11.3 0.00 0.00 0.00 28 922.4
20260507014505 16 97 9.7 12.9 0.00 0.00 0.00 28 922.5
20260507013006 17 81 11.3 14.5 0.00 0.00 0.00 28 922.6
20260507011504 18 65 6.4 12.9 0.00 0.00 0.00 23 922.6
20260507010048 20 53 8.0 16.1 0.00 0.00 0.00 22 922.8
20260507004542 20 19 9.7 19.3 0.00 0.00 0.00 21 922.8
20260507003029 21 309 4.8 8.0 0.00 0.00 0.00 21 922.8
20260507001530 21 288 8.0 9.7 0.00 0.00 0.00 22 923.0
20260507000029 20 248 9.7 14.5 0.00 0.00 0.00 21 923.0
20260506234543 20 253 11.3 20.9 0.00 0.00 0.00 21 923.1
20260506233023 21 304 16.1 20.9 0.00 0.00 0.00 21 923.3
20260506231520 21 317 16.1 22.5 0.00 0.00 0.00 21 923.5
20260506230019 21 263 12.9 22.5 0.00 0.00 0.00 19 923.7
20260506224525 20 320 11.3 20.9 0.00 0.00 0.00 20 924.0
20260506223059 20 55 4.8 22.5 0.00 0.00 0.00 20 924.2
20260506221553 20 242 9.7 22.5 0.00 0.00 0.00 20 924.5
20260506220040 20 301 17.7 27.4 0.00 0.00 0.00 21 924.7
20260506214529 19 273 11.3 29.0 0.00 0.00 0.00 21 924.8
20260506213009 19 260 6.4 30.6 0.00 0.00 0.00 22 925.1
20260506211513 18 296 19.3 32.2 0.00 0.00 0.00 22 925.3
20260506210047 18 293 16.1 22.5 0.00 0.00 0.00 23 925.5
20260506204545 18 340 3.2 16.1 0.00 0.00 0.00 22 925.6
20260506203025 17 229 8.0 29.0 0.00 0.00 0.00 23 925.9
20260506201521 17 263 14.5 32.2 0.00 0.00 0.00 23 926.2
20260506200003 16 225 11.3 33.8 0.00 0.00 0.00 23 926.4
20260506194600 16 298 6.4 27.4 0.00 0.00 0.00 23 926.6
20260506193038 15 231 20.9 27.4 0.00 0.00 0.00 23 927.0
20260506191533 15 222 14.5 19.3 0.00 0.00 0.00 24 927.2